Location: Hermaringen
(48.5952°N, 10.2585°E)
Time: 22:33:52
(UTC+00:00)

Altair - Pass Details

Date: 24 February 2026
Orbit: 1502 x 1682 km, 47.2° (Epoch: 10 March)

Event Time Altitude Azimuth Distance (km) Brightness Sun altitude
Exits shadow 04:39:40 20° 260° (W) 2,929 8.3 -15.8°
Maximum altitude 04:46:34 83° 175° (S) 1,545 7.5 -14.6°
Drops below altitude 10° 04:56:05 10° 89° (E) 3,767 11.1 -13.0°
Sets 04:59:13 0° 89° (E) 4,775 12.2 -12.5°
